Regional Weather Roundup
Issued by NWS Boston, MA

Home | Current Version | Previous Version | Text Only | Print | Product List | Glossary On
Versions: 1 2 3 4 5 6 7 8 9 10 11 12 13 14 15 16 17 18 19 20 21 22 23 24 25 26 27 28 29 30 31 32 33 34 35 36 37 38 39 40 41 42 43 44 45 46 47 48 49 50
908
ASUS41 KBOX 301410
RWRBOX

REGIONAL WEATHER ROUNDUP
NATIONAL WEATHER SERVICE TAUNTON MA
1000 AM EDT TUE AUG 30 2016

NOTE:  "FAIR" INDICATES FEW OR NO CLOUDS BELOW 12,000 FEET WITH NO
SIGNIFICANT WEATHER AND/OR OBSTRUCTIONS TO VISIBILITY.

MAZALL-301500-
EASTERN MASSACHUSETTS

CITY           SKY/WX    TMP DP  RH WIND       PRES   REMARKS
BOSTON         PTSUNNY   73  53  49 SE7       30.17S
BEVERLY        SUNNY     74  56  53 VRB3      30.16S
LAWRENCE       SUNNY     75  55  49 SW3       30.18F
BEDFORD        SUNNY     73  52  47 S5        30.16F
BLUE HILL        N/A     71  52  50 VRB5      30.18S
NORWOOD        SUNNY     74  54  49 VRB3      30.17F
MARSHFIELD     SUNNY     73  55  53 VRB5      30.17S
PLYMOUTH       SUNNY     73  55  53 VRB3      30.18R
TAUNTON        SUNNY     74  56  53 VRB3      30.17S
NEW BEDFORD    SUNNY     74  57  55 VRB3      30.17R
$$

MAZALL-301500-
CAPE COD AND THE ISLANDS

CITY           SKY/WX    TMP DP  RH WIND       PRES   REMARKS
FALMOUTH       MOSUNNY   73  59  60 CALM      30.18
HYANNIS        PTSUNNY   76  62  62 VRB6      30.16R
CHATHAM        PTSUNNY   74  60  61 VRB3      30.18R
PROVINCETOWN   SUNNY     71  62  73 NW7       30.18R
NANTUCKET      SUNNY     72  60  66 SE9       30.16R
MARTHAS VNYRD  CLOUDY    73  59  61 CALM      30.17R
$$

MAZALL-301500-
CENTRAL AND WESTERN MASSACHUSETTS

CITY           SKY/WX    TMP DP  RH WIND       PRES   REMARKS
WORCESTER      SUNNY     69  51  52 SW5       30.20S
FITCHBURG      SUNNY     74  52  46 SE5       30.19S
ORANGE         SUNNY     68  55  63 CALM      30.19F
SPRINGFIELD    PTSUNNY   70  55  59 VRB2      30.18F
WESTFIELD      SUNNY     71  55  56 CALM      30.19F
NORTH ADAMS    SUNNY     65  54  67 CALM      30.20F
PITTSFIELD     SUNNY     67  54  63 CALM      30.20S
$$

RIZALL-301500-
RHODE ISLAND

CITY           SKY/WX    TMP DP  RH WIND       PRES   REMARKS
PROVIDENCE     MOSUNNY   74  54  49 E3        30.18F
NEWPORT        SUNNY     73  58  59 CALM      30.18R
BLOCK ISLAND   SUNNY     72  61  68 NE6       30.19R
SMITHFIELD     SUNNY     72  56  57 SE5       30.19S
WESTERLY       SUNNY     75  56  51 CALM      30.19R
$$

CTZALL-301500-
CONNECTICUT

CITY           SKY/WX    TMP DP  RH WIND       PRES   REMARKS
BRADLEY INTL   PTSUNNY   71  55  56 CALM      30.19F
HARTFORD       SUNNY     73  58  59 VRB5      30.18F
BRIDGEPORT     SUNNY     74  58  57 E7        30.19R
DANBURY        SUNNY     71  57  61 E3        30.20F
GROTON         SUNNY     75  57  53 VRB3      30.18R
NEW HAVEN      MOSUNNY   75  56  51 CALM      30.19S
CHESTER        FAIR      73  55  53 CALM      30.19F
MERIDEN        SUNNY     73  55  53 CALM      30.19S
WILLIMANTIC    SUNNY     71  56  58 VRB3      30.20S
OXFORD         SUNNY     70  55  60 CALM      30.23R
$$

MEZ002-015-021-024-NHZ003-005-008-011-012-014-VTZ005-008-301500-
NORTHERN NEW ENGLAND

CITY           SKY/WX    TMP DP  RH WIND       PRES   REMARKS
PORTLAND ME    CLOUDY    73  55  53 W5        30.15S
BANGOR ME      MOSUNNY   69  57  65 W5        30.11S
CONCORD NH     SUNNY     71  55  56 CALM      30.17F
MANCHESTER NH  PTSUNNY   72  53  51 SW3       30.16F
NASHUA NH      SUNNY     72  55  55 VRB3      30.18F
PORTSMOUTH NH  PTSUNNY   73  55  53 W5        30.15S
JAFFREY NH     SUNNY     70  51  51 SW8       30.20S
KEENE NH       SUNNY     65  56  72 CALM      30.20S
BURLINGTON VT  MOSUNNY   70  55  59 S8        30.16F
MT. WASHINGTON FOG       43  43 100 W13         N/A  VSB 3/16
$$

NYZ052-076-301500-
EASTERN NEW YORK

CITY           SKY/WX    TMP DP  RH WIND       PRES   REMARKS
ALBANY         MOSUNNY   68  58  70 CALM      30.19S
NEW YORK CITY  MOSUNNY   75  61  61 NE10      30.17S
$$

ANZALL-301500-
MARINE OBSERVATIONS

STATION/POSITION TIME  TEMP    WIND        PRES    VSBY  WAVE
                       AIR SEA DIR/SP/G                  HT/PER
                 (UTC) (F)     (DEG/KT/KT) (MB)    (MI)  (FT/S)
BOSTON BUOY      1350   66 69  290/  4/  6 1021.5R         2/11
BUZZARDS BAY     1300   68      30/  4/  4 1022.0R
NANTUCKET SOUND  1350   71 74  100/  4/  6 1021.3R         1/10
MASS BAY-STELLWA 1304   64 67  270/  6/  6 1021.3R  1 7/8  2/12
ISLE OF SHOALS   1400   65     230/  5/  5 1021.2S
S OF BLOCK IS    1325      75                N/A           5/12
$$

......................KEY.........................
  SKY/WX - SKY CONDITION/PRESENT WEATHER
  TMP    - TEMPERATURE IN FAHRENHEIT
  DWPT   - DEWPOINT IN FAHRENHEIT
  RH     - RELATIVE HUMIDITY IN PERCENT
  WIND   - DIRECTION AND SPEED IN MPH
  PRES   - MEAN SEA LEVEL PRESSURE IN INCHES OF HG
  WCI    - WIND CHILL INDEX
  VSB    - VISIBILITY IN MILES
  HX     - HEAT INDEX
  TC     - TEMPERATURE IN CELSIUS
  VRB    - VARIABLE WIND DIRECTION
  N/A    - NOT AVAILABLE




USA.gov is the U.S. government's official web portal to all federal, state and local government web resources and services.